,,,PA_Meas_PMT16A,,PR_Meas_QMR101_102,,RH_Meas_QMH101,,SR_Meas_QMS101,,TA_Meas_QMH101,,GenWind,,GenWind,
date,time,status,PA,status,PR,status,RH,status,SR,status,TA,status,DirAvg,status,SpdAvg,
2012-04-08, 00:00:04,VALID,1005.12,VALID,0,VALID,88.8231,VALID,0,VALID,24.4804,VALID,342,VALID,0.657031,
2012-04-08, 00:01:04,VALID,1005.1,VALID,0,VALID,88.6247,VALID,0,VALID,24.5388,VALID,345,VALID,0.689844,
2012-04-08, 00:02:04,VALID,1005.11,VALID,0,VALID,88.289,VALID,0,VALID,24.5777,VALID,345,VALID,0.375,
2012-04-08, 00:03:04,VALID,1005.09,VALID,0,VALID,88.0983,VALID,0,VALID,24.6556,VALID,338,VALID,0.903516,
2012-04-08, 00:04:04,VALID,1005.08,VALID,0,VALID,87.6101,VALID,0,VALID,24.675,VALID,339,VALID,0.435156,
2012-04-08, 00:05:04,VALID,1005.08,VALID,0,VALID,87.5719,VALID,0.0815089,VALID,24.6945,VALID,339,VALID,0.287109,
2012-04-08, 00:06:04,VALID,1005.06,VALID,0,VALID,87.4499,VALID,0,VALID,24.7335,VALID,343,VALID,0.534375,
2012-04-08, 00:07:04,VALID,1005.05,VALID,0,VALID,87.2591,VALID,0,VALID,24.7529,VALID,342,VALID,0.382031,
2012-04-08, 00:08:04,VALID,1005.02,VALID,0,VALID,87.1523,VALID,0.0815089,VALID,24.7724,VALID,343,VALID,0,
2012-04-08, 00:09:04,VALID,1005.03,VALID,0,VALID,87.1294,VALID,0,VALID,24.8132,VALID,345,VALID,0.581641,
2012-04-08, 00:10:04,VALID,1005.02,VALID,0,VALID,86.9082,VALID,0,VALID,24.8308,VALID,345,VALID,0,
2012-04-08, 00:11:04,VALID,1004.99,VALID,0,VALID,86.8472,VALID,0,VALID,24.8503,VALID,345,VALID,0,
2012-04-08, 00:12:04,VALID,1004.95,VALID,0,VALID,86.8777,VALID,0,VALID,24.8503,VALID,345,VALID,0,
2012-04-08, 00:13:04,VALID,1004.94,VALID,0,VALID,86.8548,VALID,0.0815089,VALID,24.8716,VALID,345,VALID,0,
2012-04-08, 00:14:04,VALID,1004.94,VALID,0,VALID,86.8472,VALID,0,VALID,24.8503,VALID,345,VALID,0,
2012-04-08, 00:15:04,VALID,1004.91,VALID,0,VALID,86.7709,VALID,0,VALID,24.8716,VALID,345,VALID,0.208594,
2012-04-08, 00:16:04,VALID,1004.93,VALID,0,VALID,86.7175,VALID,0,VALID,24.8716,VALID,346,VALID,0.508984,
2012-04-08, 00:17:04,VALID,1004.91,VALID,0,VALID,86.5878,VALID,0,VALID,24.8697,VALID,346,VALID,0.015625,
2012-04-08, 00:18:04,VALID,1004.91,VALID,0,VALID,86.5496,VALID,0,VALID,24.8289,VALID,346,VALID,0.362109,
2012-04-08, 00:19:04,VALID,1004.86,VALID,0,VALID,86.6565,VALID,0,VALID,24.8113,VALID,346,VALID,0.373437,
2012-04-08, 00:20:04,VALID,1004.89,VALID,0,VALID,86.8548,VALID,0,VALID,24.7724,VALID,346,VALID,0.101953,
2012-04-08, 00:21:04,VALID,1004.86,VALID,0,VALID,87.0379,VALID,0,VALID,24.7335,VALID,346,VALID,0.168359,
2012-04-08, 00:22:04,VALID,1004.85,VALID,0,VALID,87.0989,VALID,0,VALID,24.6945,VALID,346,VALID,0.454688,
2012-04-08, 00:23:04,VALID,1004.84,VALID,0,VALID,87.0455,VALID,0,VALID,24.6945,VALID,346,VALID,0.297656,
2012-04-08, 00:24:04,VALID,1004.83,VALID,0,VALID,87.1676,VALID,0,VALID,24.6556,VALID,346,VALID,0.296094,
2012-04-08, 00:25:04,VALID,1004.81,VALID,0,VALID,87.3507,VALID,0,VALID,24.6361,VALID,346,VALID,0.189844,
2012-04-08, 00:26:04,VALID,1004.8,VALID,0,VALID,87.4727,VALID,0,VALID,24.5972,VALID,346,VALID,0.255469,
2012-04-08, 00:27:04,VALID,1004.76,VALID,0,VALID,87.5719,VALID,0,VALID,24.5777,VALID,346,VALID,0,
2012-04-08, 00:28:04,VALID,1004.75,VALID,0,VALID,87.7169,VALID,0,VALID,24.5193,VALID,346,VALID,0,
2012-04-08, 00:29:04,VALID,1004.72,VALID,0,VALID,87.9152,VALID,0,VALID,24.5193,VALID,346,VALID,0.333984,
2012-04-08, 00:30:04,VALID,1004.71,VALID,0,VALID,87.961,VALID,0.0815089,VALID,24.4998,VALID,346,VALID,0.151172,
2012-04-08, 00:31:04,VALID,1004.71,VALID,0,VALID,88.0602,VALID,0,VALID,24.5017,VALID,346,VALID,0.243359,
2012-04-08, 00:32:04,VALID,1004.69,VALID,0,VALID,88.1059,VALID,0,VALID,24.4804,VALID,346,VALID,0.0101562,
2012-04-08, 00:33:04,VALID,1004.66,VALID,0,VALID,88.1517,VALID,0,VALID,24.4201,VALID,346,VALID,0,
2012-04-08, 00:34:04,VALID,1004.63,VALID,0,VALID,88.3348,VALID,0,VALID,24.422,VALID,346,VALID,0,
2012-04-08, 00:35:04,VALID,1004.63,VALID,0,VALID,88.4416,VALID,0,VALID,24.4025,VALID,346,VALID,0,
2012-04-08, 00:36:04,VALID,1004.61,VALID,0,VALID,88.3806,VALID,0,VALID,24.4025,VALID,351,VALID,0.282813,
2012-04-08, 00:37:04,VALID,1004.58,VALID,0,VALID,88.4721,VALID,0,VALID,24.383,VALID,351,VALID,0.316016,
2012-04-08, 00:38:04,VALID,1004.58,VALID,0,VALID,88.6247,VALID,0,VALID,24.383,VALID,27,VALID,0.462109,
2012-04-08, 00:39:04,VALID,1004.6,VALID,0,VALID,88.6247,VALID,0,VALID,24.383,VALID,27,VALID,0.435547,
2012-04-08, 00:40:04,VALID,1004.6,VALID,0,VALID,88.8612,VALID,0,VALID,24.3441,VALID,27,VALID,0.261719,
2012-04-08, 00:41:04,VALID,1004.6,VALID,0,VALID,88.8841,VALID,0,VALID,24.3441,VALID,27,VALID,0.327734,
2012-04-08, 00:42:04,VALID,1004.6,VALID,0,VALID,88.9451,VALID,0,VALID,24.3441,VALID,357,VALID,0.613672,
2012-04-08, 00:43:04,VALID,1004.61,VALID,0,VALID,88.7162,VALID,0,VALID,24.422,VALID,343,VALID,0.396094,
2012-04-08, 00:44:04,VALID,1004.6,VALID,0,VALID,88.3119,VALID,0,VALID,24.4609,VALID,342,VALID,0.040625,
2012-04-08, 00:45:04,VALID,1004.58,VALID,0,VALID,88.2585,VALID,0,VALID,24.5017,VALID,343,VALID,0.192188,
2012-04-08, 00:46:04,VALID,1004.58,VALID,0,VALID,88.3424,VALID,0,VALID,24.4804,VALID,351,VALID,0.602344,
2012-04-08, 00:47:04,VALID,1004.56,VALID,0,VALID,88.3882,VALID,0,VALID,24.5193,VALID,3,VALID,0.466797,
2012-04-08, 00:48:04,VALID,1004.59,VALID,0,VALID,88.3119,VALID,0,VALID,24.5193,VALID,3,VALID,0.138281,
2012-04-08, 00:49:04,VALID,1004.6,VALID,0,VALID,88.2967,VALID,0,VALID,24.5193,VALID,3,VALID,0.213281,
2012-04-08, 00:50:04,VALID,1004.6,VALID,0,VALID,88.495,VALID,0,VALID,24.5388,VALID,356,VALID,0.437891,
2012-04-08, 00:51:04,VALID,1004.59,VALID,0,VALID,88.5408,VALID,0,VALID,24.5972,VALID,335,VALID,0.803516,
2012-04-08, 00:52:04,VALID,1004.59,VALID,0,VALID,88.1822,VALID,0,VALID,24.6769,VALID,338,VALID,0.341797,
2012-04-08, 00:53:04,VALID,1004.54,VALID,0,VALID,87.7703,VALID,0,VALID,24.714,VALID,338,VALID,0.0976563,
2012-04-08, 00:54:04,VALID,1004.52,VALID,0,VALID,87.5719,VALID,0,VALID,24.7335,VALID,338,VALID,0,
2012-04-08, 00:55:04,VALID,1004.49,VALID,0,VALID,87.5719,VALID,0,VALID,24.7353,VALID,338,VALID,0.00078125,
2012-04-08, 00:56:04,VALID,1004.45,VALID,0,VALID,87.6253,VALID,0.0815089,VALID,24.7548,VALID,338,VALID,0,
2012-04-08, 00:57:04,VALID,1004.43,VALID,0,VALID,87.7321,VALID,0,VALID,24.7335,VALID,338,VALID,0,
2012-04-08, 00:58:04,VALID,1004.41,VALID,0,VALID,87.6406,VALID,0,VALID,24.7335,VALID,338,VALID,0,
2012-04-08, 00:59:04,VALID,1004.38,VALID,0,VALID,87.6711,VALID,0,VALID,24.7335,VALID,338,VALID,0.065625,
2012-04-08, 01:00:04,VALID,1004.35,VALID,0,VALID,87.6635,VALID,0,VALID,24.714,VALID,338,VALID,0,
2012-04-08, 01:01:04,VALID,1004.31,VALID,0,VALID,87.4956,VALID,0,VALID,24.6964,VALID,338,VALID,0.330859,
2012-04-08, 01:02:04,VALID,1004.29,VALID,0,VALID,87.5948,VALID,0,VALID,24.6361,VALID,338,VALID,0.183984,
2012-04-08, 01:03:04,VALID,1004.28,VALID,0,VALID,87.6406,VALID,0,VALID,24.6185,VALID,338,VALID,0,
2012-04-08, 01:04:04,VALID,1004.26,VALID,0,VALID,87.7703,VALID,0,VALID,24.5582,VALID,338,VALID,0,
2012-04-08, 01:05:04,VALID,1004.24,VALID,0,VALID,87.9686,VALID,0,VALID,24.5017,VALID,338,VALID,0,
2012-04-08, 01:06:04,VALID,1004.25,VALID,0,VALID,88.3043,VALID,0,VALID,24.422,VALID,338,VALID,0,
2012-04-08, 01:07:04,VALID,1004.29,VALID,0,VALID,88.5789,VALID,0,VALID,24.383,VALID,338,VALID,0,
2012-04-08, 01:08:04,VALID,1004.27,VALID,0,VALID,88.8765,VALID,0,VALID,24.3441,VALID,338,VALID,0,
2012-04-08, 01:09:04,VALID,1004.26,VALID,0,VALID,89.2274,VALID,0,VALID,24.3246,VALID,338,VALID,0,
2012-04-08, 01:10:04,VALID,1004.25,VALID,0,VALID,89.1664,VALID,0,VALID,24.3052,VALID,338,VALID,0,
2012-04-08, 01:11:04,VALID,1004.25,VALID,0,VALID,89.2274,VALID,0,VALID,24.2681,VALID,338,VALID,0,
2012-04-08, 01:12:04,VALID,1004.24,VALID,0,VALID,89.5249,VALID,0,VALID,24.2468,VALID,338,VALID,0,
2012-04-08, 01:13:04,VALID,1004.22,VALID,0,VALID,89.5097,VALID,0,VALID,24.2078,VALID,338,VALID,0,
2012-04-08, 01:14:04,VALID,1004.18,VALID,0,VALID,89.6851,VALID,0,VALID,24.1884,VALID,338,VALID,0,
2012-04-08, 01:15:04,VALID,1004.16,VALID,0,VALID,89.8072,VALID,0,VALID,24.1494,VALID,338,VALID,0,
2012-04-08, 01:16:04,VALID,1004.16,VALID,0,VALID,89.7004,VALID,0,VALID,24.1105,VALID,338,VALID,0,
2012-04-08, 01:17:04,VALID,1004.16,VALID,0,VALID,89.7843,VALID,0,VALID,24.0716,VALID,338,VALID,0,
2012-04-08, 01:18:04,VALID,1004.16,VALID,0,VALID,89.8453,VALID,0,VALID,24.0326,VALID,338,VALID,0,
2012-04-08, 01:19:04,VALID,1004.15,VALID,0,VALID,89.9598,VALID,0,VALID,24.0345,VALID,338,VALID,0,
2012-04-08, 01:20:04,VALID,1004.18,VALID,0,VALID,90.2497,VALID,0,VALID,23.9761,VALID,338,VALID,0,
2012-04-08, 01:21:04,VALID,1004.17,VALID,0,VALID,90.6998,VALID,0,VALID,23.9566,VALID,338,VALID,0,
2012-04-08, 01:22:04,VALID,1004.19,VALID,0,VALID,90.7989,VALID,0,VALID,23.9159,VALID,338,VALID,0,
2012-04-08, 01:23:04,VALID,1004.17,VALID,0,VALID,90.8905,VALID,0,VALID,23.9353,VALID,337,VALID,0.314453,
2012-04-08, 01:24:04,VALID,1004.18,VALID,0,VALID,91.1346,VALID,0,VALID,23.9548,VALID,337,VALID,0.207813,
2012-04-08, 01:25:04,VALID,1004.16,VALID,0,VALID,91.0507,VALID,0,VALID,23.9742,VALID,337,VALID,0,
2012-04-08, 01:26:04,VALID,1004.18,VALID,0,VALID,90.921,VALID,0,VALID,23.9761,VALID,337,VALID,0,
2012-04-08, 01:27:04,VALID,1004.19,VALID,0,VALID,90.6692,VALID,0,VALID,23.9353,VALID,337,VALID,0.0617188,
2012-04-08, 01:28:04,VALID,1004.18,VALID,0,VALID,90.6998,VALID,0,VALID,23.9159,VALID,337,VALID,0.432031,
2012-04-08, 01:29:04,VALID,1004.18,VALID,0,VALID,90.7074,VALID,0,VALID,23.8769,VALID,337,VALID,0.00585938,
2012-04-08, 01:30:04,VALID,1004.17,VALID,0,VALID,90.8752,VALID,0,VALID,23.8593,VALID,337,VALID,0,
2012-04-08, 01:31:04,VALID,1004.2,VALID,0,VALID,90.982,VALID,0,VALID,23.838,VALID,337,VALID,0.0464844,
2012-04-08, 01:32:04,VALID,1004.23,VALID,0,VALID,91.2033,VALID,0,VALID,23.7991,VALID,337,VALID,0.347266,
2012-04-08, 01:33:04,VALID,1004.25,VALID,0,VALID,91.5237,VALID,0.0815089,VALID,23.7973,VALID,336,VALID,0.275,
2012-04-08, 01:34:04,VALID,1004.23,VALID,0,VALID,91.394,VALID,0.0815089,VALID,23.838,VALID,336,VALID,0.451953,
2012-04-08, 01:35:04,VALID,1004.23,VALID,0,VALID,91.3177,VALID,0,VALID,23.8203,VALID,336,VALID,0.349609,
2012-04-08, 01:36:04,VALID,1004.22,VALID,0,VALID,91.3787,VALID,0,VALID,23.7796,VALID,336,VALID,0.369141,
2012-04-08, 01:37:04,VALID,1004.21,VALID,0,VALID,91.4245,VALID,0,VALID,23.7407,VALID,336,VALID,0.325781,
2012-04-08, 01:38:04,VALID,1004.21,VALID,0,VALID,91.5771,VALID,0,VALID,23.7212,VALID,336,VALID,0.501562,
2012-04-08, 01:39:04,VALID,1004.21,VALID,0,VALID,91.7602,VALID,0,VALID,23.7035,VALID,336,VALID,0.382422,
2012-04-08, 01:40:04,VALID,1004.19,VALID,0,VALID,91.989,VALID,0,VALID,23.7035,VALID,337,VALID,0.414844,
2012-04-08, 01:41:04,VALID,1004.19,VALID,0,VALID,92.2255,VALID,0,VALID,23.7035,VALID,337,VALID,0.380469,
2012-04-08, 01:42:04,VALID,1004.22,VALID,0,VALID,92.4086,VALID,0,VALID,23.661,VALID,337,VALID,0.308984,
2012-04-08, 01:43:04,VALID,1004.18,VALID,0,VALID,92.4391,VALID,0,VALID,23.6823,VALID,337,VALID,0.252344,
2012-04-08, 01:44:04,VALID,1004.16,VALID,0,VALID,92.729,VALID,0,VALID,23.7407,VALID,337,VALID,0.378125,
2012-04-08, 01:45:04,VALID,1004.16,VALID,0,VALID,92.6909,VALID,0,VALID,23.7601,VALID,337,VALID,0.536328,
2012-04-08, 01:46:04,VALID,1004.16,VALID,0,VALID,92.5612,VALID,0,VALID,23.7991,VALID,337,VALID,0.411328,
2012-04-08, 01:47:04,VALID,1004.16,VALID,0,VALID,92.4925,VALID,0,VALID,23.7973,VALID,337,VALID,0.312109,
2012-04-08, 01:48:04,VALID,1004.14,VALID,0,VALID,92.4849,VALID,0,VALID,23.838,VALID,337,VALID,0.225391,
2012-04-08, 01:49:04,VALID,1004.15,VALID,0,VALID,92.3857,VALID,0,VALID,23.8362,VALID,336,VALID,0.305078,
2012-04-08, 01:50:04,VALID,1004.13,VALID,0,VALID,92.3476,VALID,0,VALID,23.8769,VALID,337,VALID,0.196875,
2012-04-08, 01:51:04,VALID,1004.1,VALID,0,VALID,92.3095,VALID,0,VALID,23.9159,VALID,338,VALID,0.647266,
2012-04-08, 01:52:04,VALID,1004.13,VALID,0,VALID,92.134,VALID,0,VALID,23.9548,VALID,342,VALID,0.337891,
2012-04-08, 01:53:04,VALID,1004.14,VALID,0,VALID,91.9509,VALID,0.0815089,VALID,24.0503,VALID,343,VALID,0.604297,
2012-04-08, 01:54:04,VALID,1004.1,VALID,0,VALID,91.8136,VALID,0.0815089,VALID,24.0326,VALID,346,VALID,0.689062,
2012-04-08, 01:55:04,VALID,1004.08,VALID,0,VALID,91.4932,VALID,0.0815089,VALID,24.1105,VALID,346,VALID,0.408203,
2012-04-08, 01:56:04,VALID,1004.06,VALID,0,VALID,90.982,VALID,0,VALID,24.13,VALID,346,VALID,0.341016,
2012-04-08, 01:57:04,VALID,1004.03,VALID,0,VALID,90.7913,VALID,0,VALID,24.1123,VALID,346,VALID,0.311328,
2012-04-08, 01:58:04,VALID,1004,VALID,0,VALID,90.8142,VALID,0,VALID,24.1123,VALID,346,VALID,0.0644531,
2012-04-08, 01:59:04,VALID,1004.02,VALID,0,VALID,90.776,VALID,0,VALID,24.0929,VALID,346,VALID,0,
2012-04-08, 02:00:04,VALID,1003.98,VALID,0,VALID,90.8295,VALID,0,VALID,24.0716,VALID,346,VALID,0,
2012-04-08, 02:01:04,VALID,1003.98,VALID,0,VALID,90.8829,VALID,0,VALID,24.0326,VALID,346,VALID,0,
2012-04-08, 02:02:04,VALID,1003.96,VALID,0,VALID,90.9591,VALID,0.0815089,VALID,24.0326,VALID,346,VALID,0,
2012-04-08, 02:03:04,VALID,1003.97,VALID,0,VALID,91.0507,VALID,0,VALID,24.0326,VALID,346,VALID,0,
2012-04-08, 02:04:04,VALID,1003.97,VALID,0,VALID,91.1651,VALID,0,VALID,24.0132,VALID,346,VALID,0,
2012-04-08, 02:05:04,VALID,1003.98,VALID,0,VALID,91.249,VALID,0,VALID,24.0345,VALID,346,VALID,0,
2012-04-08, 02:06:04,VALID,1004.01,VALID,0,VALID,91.394,VALID,0,VALID,24.0132,VALID,346,VALID,0,
2012-04-08, 02:07:04,VALID,1003.98,VALID,0,VALID,91.3864,VALID,0.0815089,VALID,23.9937,VALID,346,VALID,0,
2012-04-08, 02:08:04,VALID,1004,VALID,0,VALID,91.5084,VALID,0.0815089,VALID,23.9742,VALID,346,VALID,0,
2012-04-08, 02:09:04,VALID,1004,VALID,0,VALID,91.5771,VALID,0,VALID,23.9548,VALID,346,VALID,0,
2012-04-08, 02:10:04,VALID,1004,VALID,0,VALID,91.6991,VALID,0.0815089,VALID,23.9353,VALID,346,VALID,0,
2012-04-08, 02:11:04,VALID,1003.97,VALID,0,VALID,91.8365,VALID,0.0815089,VALID,23.9159,VALID,346,VALID,0.111719,
2012-04-08, 02:12:04,VALID,1003.99,VALID,0,VALID,92.0196,VALID,0,VALID,23.8964,VALID,346,VALID,0,
2012-04-08, 02:13:04,VALID,1003.95,VALID,0,VALID,92.1416,VALID,0,VALID,23.9177,VALID,346,VALID,0.0828125,
2012-04-08, 02:14:04,VALID,1003.92,VALID,0,VALID,92.195,VALID,0.0815089,VALID,23.8769,VALID,346,VALID,0.298047,
2012-04-08, 02:15:04,VALID,1003.94,VALID,0,VALID,92.3247,VALID,0,VALID,23.8769,VALID,345,VALID,0.585547,
2012-04-08, 02:16:04,VALID,1003.95,VALID,0,VALID,92.3247,VALID,0.0815089,VALID,23.9159,VALID,348,VALID,0.525781,
2012-04-08, 02:17:04,VALID,1003.97,VALID,0,VALID,92.2103,VALID,0.0815089,VALID,23.9548,VALID,348,VALID,0.537891,
2012-04-08, 02:18:04,VALID,1004.02,VALID,0,VALID,92.073,VALID,0,VALID,23.9724,VALID,347,VALID,0.80625,
2012-04-08, 02:19:04,VALID,1004.07,VALID,0,VALID,91.9051,VALID,0.0815089,VALID,24.0308,VALID,352,VALID,0.652734,
2012-04-08, 02:20:04,VALID,1004.06,VALID,0,VALID,91.5695,VALID,0.0815089,VALID,24.1105,VALID,352,VALID,0.084375,
2012-04-08, 02:21:04,VALID,1004.11,VALID,0,VALID,91.394,VALID,0,VALID,24.1689,VALID,345,VALID,0.848047,
2012-04-08, 02:22:04,VALID,1004.12,VALID,0,VALID,91.0125,VALID,0,VALID,24.2468,VALID,353,VALID,0.726953,
2012-04-08, 02:23:04,VALID,1004.16,VALID,0,VALID,90.448,VALID,0,VALID,24.3246,VALID,349,VALID,0.841406,
2012-04-08, 02:24:04,VALID,1004.11,VALID,0,VALID,89.7309,VALID,0,VALID,24.4414,VALID,353,VALID,1.08984,
2012-04-08, 02:25:04,VALID,1004.06,VALID,0,VALID,88.9909,VALID,0,VALID,24.5369,VALID,339,VALID,0.635938,
2012-04-08, 02:26:04,VALID,1004.03,VALID,0,VALID,88.4187,VALID,0.0815089,VALID,24.6148,VALID,355,VALID,0.959766,
2012-04-08, 02:27:04,VALID,1004.05,VALID,0,VALID,87.9228,VALID,0,VALID,24.714,VALID,358,VALID,0.919922,
2012-04-08, 02:28:04,VALID,1004.02,VALID,0,VALID,87.1828,VALID,0,VALID,24.7919,VALID,294,VALID,0.527344,
2012-04-08, 02:29:04,VALID,1003.99,VALID,0,VALID,86.5268,VALID,0,VALID,24.8503,VALID,317,VALID,0.949219,
2012-04-08, 02:30:04,VALID,1004.01,VALID,0,VALID,86.3666,VALID,0,VALID,24.8911,VALID,4,VALID,0.638281,
2012-04-08, 02:31:04,VALID,1004,VALID,0,VALID,86.0614,VALID,0,VALID,24.9282,VALID,349,VALID,1.39414,
2012-04-08, 02:32:04,VALID,1004.02,VALID,0,VALID,85.7486,VALID,0,VALID,24.9671,VALID,335,VALID,0.644531,
2012-04-08, 02:33:04,VALID,1004.01,VALID,0,VALID,85.6189,VALID,0,VALID,24.9866,VALID,347,VALID,0.915625,
2012-04-08, 02:34:04,VALID,1004.05,VALID,0,VALID,85.2222,VALID,0,VALID,25.006,VALID,344,VALID,0.875391,
2012-04-08, 02:35:04,VALID,1004.01,VALID,0,VALID,85.2527,VALID,0.0815089,VALID,25.0255,VALID,352,VALID,0.377734,
2012-04-08, 02:36:04,VALID,1003.99,VALID,0,VALID,85.3367,VALID,0,VALID,25.045,VALID,350,VALID,1.01211,
2012-04-08, 02:37:04,VALID,1003.99,VALID,0,VALID,85.2222,VALID,0,VALID,25.045,VALID,342,VALID,1.00703,
2012-04-08, 02:38:04,VALID,1003.98,VALID,0,VALID,85.3138,VALID,0,VALID,25.0839,VALID,359,VALID,0.985547,
2012-04-08, 02:39:04,VALID,1003.98,VALID,0,VALID,85.2604,VALID,0,VALID,25.1053,VALID,348,VALID,1.14102,
2012-04-08, 02:40:04,VALID,1004.01,VALID,0,VALID,85.3061,VALID,0,VALID,25.0839,VALID,289,VALID,0.669141,
2012-04-08, 02:41:04,VALID,1004.02,VALID,0,VALID,85.3138,VALID,0,VALID,25.0644,VALID,335,VALID,0.435156,
2012-04-08, 02:42:04,VALID,1004.01,VALID,0,VALID,85.3138,VALID,0,VALID,25.0858,VALID,291,VALID,0.628516,
2012-04-08, 02:43:04,VALID,1003.99,VALID,0,VALID,85.2909,VALID,0,VALID,25.0644,VALID,345,VALID,0.964844,
2012-04-08, 02:44:04,VALID,1003.96,VALID,0,VALID,85.0315,VALID,0,VALID,25.0644,VALID,338,VALID,0.920313,
2012-04-08, 02:45:04,VALID,1003.96,VALID,0,VALID,85.1536,VALID,0.0815089,VALID,25.1053,VALID,229,VALID,0.15625,
2012-04-08, 02:46:04,VALID,1003.92,VALID,0,VALID,85.0849,VALID,0,VALID,25.0839,VALID,350,VALID,0.723437,
2012-04-08, 02:47:04,VALID,1003.92,VALID,0,VALID,85.0468,VALID,0,VALID,25.0858,VALID,350,VALID,0.664063,
2012-04-08, 02:48:04,VALID,1003.89,VALID,0,VALID,84.8408,VALID,0,VALID,25.0858,VALID,316,VALID,0.886328,
2012-04-08, 02:49:04,VALID,1003.93,VALID,0,VALID,84.7492,VALID,0,VALID,25.0644,VALID,6,VALID,0.816016,
2012-04-08, 02:50:04,VALID,1003.92,VALID,0,VALID,84.8789,VALID,0,VALID,25.0663,VALID,340,VALID,0.224609,
2012-04-08, 02:51:04,VALID,1003.92,VALID,0,VALID,84.7492,VALID,0,VALID,25.0469,VALID,19,VALID,0.697266,
2012-04-08, 02:52:04,VALID,1003.93,VALID,0,VALID,84.8942,VALID,0,VALID,25.0663,VALID,335,VALID,0.208203,
2012-04-08, 02:53:04,VALID,1003.94,VALID,0,VALID,85.2146,VALID,0.0815089,VALID,25.0839,VALID,325,VALID,0.452734,
2012-04-08, 02:54:04,VALID,1003.97,VALID,0,VALID,85.0849,VALID,0.0815089,VALID,25.006,VALID,302,VALID,0.615234,
2012-04-08, 02:55:04,VALID,1003.97,VALID,0,VALID,85.062,VALID,0.0815089,VALID,25.006,VALID,352,VALID,0.907812,
2012-04-08, 02:56:04,VALID,1003.93,VALID,0,VALID,84.795,VALID,0,VALID,24.9671,VALID,352,VALID,1.06836,
2012-04-08, 02:57:04,VALID,1003.9,VALID,0,VALID,84.94,VALID,0,VALID,24.9671,VALID,319,VALID,0.516797,
2012-04-08, 02:58:04,VALID,1003.89,VALID,0,VALID,84.94,VALID,0.0815089,VALID,24.9476,VALID,328,VALID,0.529297,
2012-04-08, 02:59:04,VALID,1003.87,VALID,0,VALID,85.207,VALID,0,VALID,24.9282,VALID,333,VALID,0.320703,
2012-04-08, 03:00:04,VALID,1003.9,VALID,0,VALID,85.0086,VALID,0.0815089,VALID,24.9282,VALID,335,VALID,0.801953,
2012-04-08, 03:01:04,VALID,1003.84,VALID,0,VALID,85.0544,VALID,0,VALID,24.8892,VALID,295,VALID,0.744141,
2012-04-08, 03:02:04,VALID,1003.83,VALID,0,VALID,84.3525,VALID,0.0815089,VALID,24.8503,VALID,350,VALID,0.898047,
2012-04-08, 03:03:04,VALID,1003.83,VALID,0,VALID,84.5661,VALID,0.0815089,VALID,24.8716,VALID,11,VALID,0.767969,
2012-04-08, 03:04:04,VALID,1003.86,VALID,0,VALID,84.6501,VALID,0,VALID,24.8308,VALID,349,VALID,0.481641,
2012-04-08, 03:05:04,VALID,1003.89,VALID,0,VALID,84.4899,VALID,0.0815089,VALID,24.8327,VALID,309,VALID,0.305469,
2012-04-08, 03:06:04,VALID,1003.9,VALID,0,VALID,84.8408,VALID,0,VALID,24.7919,VALID,311,VALID,0.116406,
2012-04-08, 03:07:04,VALID,1003.87,VALID,0,VALID,84.6501,VALID,0,VALID,24.7724,VALID,2,VALID,0.337109,
2012-04-08, 03:08:04,VALID,1003.88,VALID,0,VALID,84.6043,VALID,0,VALID,24.7529,VALID,349,VALID,0.792969,
2012-04-08, 03:09:04,VALID,1003.88,VALID,0,VALID,84.6501,VALID,0.0815089,VALID,24.7529,VALID,346,VALID,0.466797,
2012-04-08, 03:10:04,VALID,1003.88,VALID,0,VALID,84.7416,VALID,0,VALID,24.714,VALID,339,VALID,0.569141,
2012-04-08, 03:11:04,VALID,1003.9,VALID,0,VALID,84.795,VALID,0,VALID,24.6926,VALID,352,VALID,0.807422,
2012-04-08, 03:12:04,VALID,1003.89,VALID,0,VALID,84.795,VALID,0,VALID,24.675,VALID,346,VALID,0.867188,
2012-04-08, 03:13:04,VALID,1003.86,VALID,0,VALID,84.8713,VALID,0.0815089,VALID,24.675,VALID,348,VALID,0.879297,
2012-04-08, 03:14:04,VALID,1003.87,VALID,0,VALID,85.1765,VALID,0.0815089,VALID,24.6361,VALID,351,VALID,0.864844,
2012-04-08, 03:15:04,VALID,1003.88,VALID,0,VALID,85.3977,VALID,0.0815089,VALID,24.5972,VALID,349,VALID,0.896094,
2012-04-08, 03:16:04,VALID,1003.88,VALID,0,VALID,85.2985,VALID,0.0815089,VALID,24.5582,VALID,339,VALID,1.05586,
2012-04-08, 03:17:04,VALID,1003.9,VALID,0,VALID,85.3901,VALID,0,VALID,24.5388,VALID,326,VALID,0.191016,
2012-04-08, 03:18:04,VALID,1003.91,VALID,0,VALID,85.4816,VALID,0.0815089,VALID,24.5406,VALID,349,VALID,0.852344,
2012-04-08, 03:19:04,VALID,1003.91,VALID,0,VALID,85.5198,VALID,0,VALID,24.4998,VALID,355,VALID,0.741016,
2012-04-08, 03:20:04,VALID,1003.92,VALID,0,VALID,85.6113,VALID,0,VALID,24.4822,VALID,358,VALID,0.210938,
2012-04-08, 03:21:04,VALID,1003.9,VALID,0,VALID,85.68,VALID,0,VALID,24.4609,VALID,277,VALID,0.497656,
2012-04-08, 03:22:04,VALID,1003.9,VALID,0,VALID,85.4053,VALID,0,VALID,24.4414,VALID,288,VALID,0.319922,
2012-04-08, 03:23:04,VALID,1003.9,VALID,0,VALID,85.1536,VALID,0,VALID,24.4804,VALID,349,VALID,0.620313,
2012-04-08, 03:24:04,VALID,1003.87,VALID,0,VALID,84.6195,VALID,0,VALID,24.5193,VALID,350,VALID,0.694141,
2012-04-08, 03:25:04,VALID,1003.89,VALID,0,VALID,84.261,VALID,0,VALID,24.5777,VALID,313,VALID,0.420703,
2012-04-08, 03:26:05,VALID,1003.91,VALID,0,VALID,84.1008,VALID,0.0815089,VALID,24.6574,VALID,278,VALID,0.64375,
2012-04-08, 03:27:05,VALID,1003.91,VALID,0,VALID,84.1618,VALID,0,VALID,24.6361,VALID,327,VALID,0.256641,
2012-04-08, 03:28:05,VALID,1003.89,VALID,0,VALID,83.9482,VALID,0.0815089,VALID,24.6556,VALID,307,VALID,0.433594,
2012-04-08, 03:29:05,VALID,1003.93,VALID,0,VALID,83.849,VALID,0,VALID,24.675,VALID,328,VALID,0.65625,
2012-04-08, 03:30:05,VALID,1003.96,VALID,0,VALID,83.4142,VALID,0.0815089,VALID,24.714,VALID,280,VALID,0.886328,
2012-04-08, 03:31:05,VALID,1003.95,VALID,0,VALID,83.4523,VALID,0,VALID,24.7529,VALID,330,VALID,0.255469,
2012-04-08, 03:32:05,VALID,1003.94,VALID,0,VALID,83.3684,VALID,0,VALID,24.7724,VALID,328,VALID,0.36875,
2012-04-08, 03:33:05,VALID,1003.99,VALID,0,VALID,83.4065,VALID,0,VALID,24.7919,VALID,311,VALID,0.633203,
2012-04-08, 03:34:05,VALID,1004.02,VALID,0,VALID,83.5134,VALID,0,VALID,24.8132,VALID,247,VALID,0.317578,
2012-04-08, 03:35:05,VALID,1004.08,VALID,0,VALID,83.2387,VALID,0.0815089,VALID,24.8327,VALID,304,VALID,1.26797,
2012-04-08, 03:36:05,VALID,1004.1,VALID,0,VALID,83.2463,VALID,0.0815089,VALID,24.8503,VALID,278,VALID,0.935938,
2012-04-08, 03:37:05,VALID,1004.14,VALID,0,VALID,83.0404,VALID,0,VALID,24.8911,VALID,291,VALID,0.862109,
2012-04-08, 03:38:05,VALID,1004.14,VALID,0,VALID,82.9793,VALID,0,VALID,24.9495,VALID,282,VALID,1.7707,
2012-04-08, 03:39:05,VALID,1004.18,VALID,0,VALID,82.8954,VALID,0,VALID,24.9671,VALID,284,VALID,1.36953,
2012-04-08, 03:40:05,VALID,1004.2,VALID,0,VALID,82.7886,VALID,0,VALID,25.006,VALID,272,VALID,0.892187,
2012-04-08, 03:41:05,VALID,1004.22,VALID,0,VALID,82.5979,VALID,0,VALID,25.045,VALID,283,VALID,1.3168,
2012-04-08, 03:42:05,VALID,1004.21,VALID,0,VALID,82.575,VALID,0,VALID,25.0839,VALID,287,VALID,1.70742,
2012-04-08, 03:43:05,VALID,1004.2,VALID,0,VALID,82.7428,VALID,0,VALID,25.1248,VALID,215,VALID,0.363672,
2012-04-08, 03:44:05,VALID,1004.22,VALID,0,VALID,82.781,VALID,0,VALID,25.1034,VALID,282,VALID,1.49531,
2012-04-08, 03:45:05,VALID,1004.24,VALID,0,VALID,82.6437,VALID,0,VALID,25.1618,VALID,290,VALID,1.80508,